Find Local Weather

World > North America > United States > Minnesota

Balaton, Minnesota Regional Weather

Lat: 44.23N, Lon: 95.87W
Wx Zone: MNZ072
Feedback
Expires:201808220200;;433467
ASUS43 KMPX 220110
RWRMN 
WEATHER ROUNDUP FOR MINNESOTA
NATIONAL WEATHER SERVICE TWIN CITIES/CHANHASSEN MN
800 PM CDT TUE AUG 21 2018


NOTE: "FAIR" INDICATES FEW OR NO CLOUDS BELOW 12,000 FEET WITH NO
SIGNIFICANT WEATHER AND/OR OBSTRUCTIONS TO VISIBILITY. N/A MEANS
CURRENT SKY AND/OR WEATHER CONDITIONS ARE NOT AVAILABLE.


MNZ071>073-080-081-089-090-097-098-220200-
   Southwest Minnesota   
  
CITY           SKY/WX    TMP DP  RH WIND       PRES   REMARKS
MONTEVIDEO     CLEAR     66  50  55 CALM      30.19S                  
GRANITE FALLS  CLEAR     67  56  69 W3        30.20S                  
CANBY          CLEAR     70  58  65 CALM      30.21S                  
MARSHALL       CLEAR     66  53  63 NW5       30.20S                  
REDWOOD FALLS  CLEAR     65  52  62 NW6       30.17S                  
OLIVIA         CLEAR     66  54  63 NW5       30.17S                  
PIPESTONE      CLEAR     64  55  72 CALM      30.22S                  
WINDOM         PTCLDY    66  57  72 CALM      30.19S                  
WORTHINGTON    PTCLDY    63  56  78 NW6       30.21F                  
JACKSON        CLOUDY    61  55  82 NW3       30.20S                  
TRACY          CLEAR     64  54  70 NW3       30.20S                  
$$

SKY/WX - Weather  TMP - Temperature  DP - Dewpoint  RH - Relative Humidity
WIND - Wind Direction/Speed PRES - Barometric Pressure